Wind_Speed
9 8 8 7 6 6 6 7 6 7 8 8 8 8 7 7 7 9 11 11 11 12 12 12 12 12 12 12 12 12 12 12 12 12 12 12 13 13 13 14 14 14 14 13 13 13 13 13 13
9 8 8 7 6 6 7 9 8 8 9 9 9 9 9 9 9 11 12 12 12 12 13 14 14 15 16 15 15 14 14 14 14 14 13 14 13 13 13 13 13 13 13 13 13 13 13 12 12
8 7 8 8 7 8 9 10 10 10 11 10 10 10 10 11 11 12 13 14 14 13 13 14 15 16 18 19 18 17 16 16 16 16 16 16 15 15 14 14 13 13 13 13 13 12 12 12 12
7 7 7 7 8 9 10 11 11 12 12 12 12 12 12 13 13 14 15 15 15 15 15 15 15 16 17 19 20 20 19 19 19 19 18 18 17 17 16 15 14 14 13 13 13 12 12 11 11
7 7 8 8 9 9 11 13 13 14 14 14 14 14 15 15 16 16 17 17 17 17 17 18 18 18 19 18 19 20 22 22 21 21 21 20 19 18 18 17 16 15 14 13 13 12 11 11 10
8 9 8 9 11 13 14 14 15 16 16 16 17 17 17 18 18 19 20 21 21 21 20 21 21 20 20 19 20 22 22 24 23 23 23 23 22 21 20 20 18 17 16 15 14 13 12 11 10
8 9 10 11 13 14 15 16 17 18 18 19 20 20 21 21 22 23 24 24 24 25 24 24 24 24 23 22 22 22 23 24 25 25 25 25 25 24 23 22 21 20 18 17 16 14 13 12 12
11 10 11 13 14 15 16 18 19 20 21 21 22 23 24 25 25 26 27 27 28 28 28 28 27 27 26 25 25 25 25 24 24 25 26 27 27 27 27 25 24 23 21 19 18 17 15 14 13
12 11 13 15 16 18 19 20 21 22 22 23 24 25 27 27 28 29 29 30 30 31 31 31 30 30 30 29 29 29 28 28 28 27 27 28 28 28 29 28 27 26 24 22 20 19 17 16 15
13 13 13 17 18 20 21 22 23 24 24 24 25 26 27 28 30 31 31 31 32 32 32 33 33 33 33 33 33 32 32 32 31 30 29 29 29 29 28 28 28 28 27 25 23 22 20 19 17
13 16 16 18 19 21 22 23 24 25 26 27 27 27 28 30 30 31 31 31 32 32 33 33 33 34 33 34 34 34 34 34 33 33 32 31 30 30 30 29 28 28 28 27 26 24 23 22 20
15 16 18 19 19 21 22 23 24 25 27 27 28 28 29 29 30 30 30 30 30 30 30 30 30 31 32 32 33 34 35 35 36 35 35 34 33 31 31 30 28 27 28 27 27 26 25 24 22
17 17 18 19 20 21 22 23 24 25 26 26 27 27 28 28 29 29 28 28 28 28 27 27 28 28 30 31 32 32 33 33 34 35 36 36 34 32 31 32 32 29 27 27 28 27 26 26 24
16 18 18 19 20 20 22 23 24 24 25 25 26 27 27 26 26 26 26 26 26 26 25 25 25 25 26 27 28 30 30 31 32 33 33 34 35 34 34 33 33 32 30 29 29 28 27 26 26
17 17 18 18 19 20 21 24 24 23 24 25 25 25 23 23 23 23 24 24 24 24 24 23 23 23 24 24 25 26 27 28 29 30 31 31 32 32 32 33 33 33 33 32 31 29 28 28 27
15 16 17 18 20 19 21 24 25 24 24 24 23 22 22 22 22 22 22 22 22 23 22 22 22 22 22 22 22 22 23 24 26 27 29 30 30 31 32 31 32 32 33 33 33 31 30 30 29
13 14 15 19 21 20 22 23 23 21 21 21 21 21 21 21 21 21 21 21 21 22 21 21 21 20 19 19 19 19 19 20 22 24 26 27 29 30 31 32 33 32 32 33 34 32 32 32 31
13 14 15 19 21 21 22 22 21 19 19 20 20 20 20 20 21 20 20 21 21 21 20 20 19 19 18 17 17 17 17 18 19 21 23 24 26 28 29 30 32 32 32 33 33 34 34 33 33
14 15 14 18 19 19 18 18 18 17 18 19 19 19 19 20 19 19 19 20 20 20 20 20 19 18 17 15 15 15 15 16 16 18 20 22 23 26 27 29 30 32 32 33 33 33 34 34 34
13 14 13 17 16 14 14 14 15 16 17 17 17 18 18 18 18 18 19 19 20 20 20 20 19 18 17 15 14 14 14 15 15 16 17 19 21 23 25 27 28 30 31 33 33 34 35 34 34
13 13 13 14 14 13 12 12 13 14 15 15 16 17 17 17 17 18 19 19 20 20 20 20 19 18 17 15 15 14 14 14 14 15 15 17 18 20 22 24 26 28 30 31 33 34 35 35 35
13 12 11 10 10 10 11 11 13 15 15 15 15 15 16 16 17 18 18 19 20 20 20 20 20 19 18 17 16 15 14 14 13 14 14 15 16 17 19 22 24 26 28 30 32 34 35 35 35
12 9 8 7 7 7 8 10 13 14 15 15 15 15 15 15 16 17 18 19 20 20 20 20 20 20 19 19 18 16 15 14 13 13 14 14 15 15 17 19 21 24 26 28 30 32 34 35 35
9 7 5 4 5 6 7 9 11 13 14 14 14 14 14 15 16 16 17 18 19 20 21 21 21 21 20 20 19 18 17 16 15 14 14 13 14 14 15 17 19 22 24 26 28 30 32 33 34
7 6 3 3 6 7 7 8 9 11 12 12 13 13 14 15 15 16 17 18 19 20 21 21 22 22 21 21 21 20 19 18 17 16 15 14 13 13 14 15 17 19 21 23 26 28 30 31 32
7 6 5 5 3 6 6 7 8 9 10 11 12 13 14 14 15 16 17 18 19 19 21 22 22 23 23 22 22 21 20 20 19 18 17 15 14 14 14 14 15 17 18 21 23 25 27 29 31
7 6 5 5 4 1 7 7 6 8 8 10 11 12 13 14 15 16 16 17 18 19 20 21 22 23 23 23 23 22 22 21 21 20 19 17 16 15 14 14 14 15 17 18 20 22 24 26 28
7 6 6 6 5 3 6 7 7 7 8 9 11 12 13 14 15 15 16 17 18 19 20 21 22 23 23 24 24 24 23 22 21 21 21 19 17 15 15 14 13 13 15 16 18 19 21 24 26
7 6 6 5 4 5 4 4 5 6 7 9 10 11 12 13 14 15 16 17 18 18 19 21 22 23 24 24 24 24 25 24 23 22 21 21 19 17 16 15 13 12 12 13 14 16 18 20 23
7 6 6 5 5 3 2 2 4 5 7 8 9 10 11 13 14 15 15 16 17 18 19 20 21 22 23 24 24 24 25 25 25 24 23 22 21 19 17 16 14 13 12 11 12 13 15 17 19
Wind_Direction
13 13 15 11 10 0 358 354 349 344 336 330 327 323 313 304 302 297 298 299 292 283 276 268 265 264 264 263 262 261 258 256 254 253 252 252 251 250 248 247 247 245 243 243 244 245 246 249 251
8 8 6 1 360 349 344 342 341 338 329 322 318 318 311 306 303 299 298 301 298 290 281 272 266 263 260 257 256 257 256 256 256 255 254 255 255 253 251 250 248 245 243 244 246 248 251 251 250
356 356 358 351 342 343 336 334 333 330 325 317 313 311 307 304 302 300 298 301 301 295 287 282 275 268 264 258 253 252 251 252 252 252 253 254 255 254 252 251 249 247 246 246 247 249 250 250 249
339 342 344 338 327 329 330 327 324 320 317 312 309 306 304 301 300 299 299 301 301 297 289 288 287 286 276 267 256 252 249 250 251 250 250 251 253 253 252 250 249 249 248 247 247 248 249 249 248
323 329 329 327 321 318 319 321 318 314 313 311 308 305 304 301 298 298 299 298 297 295 290 286 287 288 286 276 263 255 251 248 249 250 250 250 250 251 250 250 248 248 247 247 247 248 248 248 247
314 314 310 309 313 314 316 314 313 312 310 309 307 306 303 300 298 296 295 294 293 291 288 285 285 284 284 279 271 264 257 250 249 249 249 248 247 248 248 248 247 246 245 245 245 246 247 247 246
301 302 301 304 308 308 310 311 311 309 308 306 304 303 302 299 298 296 295 293 292 289 286 282 280 280 279 277 270 267 263 258 252 251 250 249 247 246 246 248 246 244 244 243 243 244 245 245 244
296 300 297 297 302 303 308 308 307 307 306 305 304 304 303 301 298 296 295 293 291 289 286 283 279 277 276 275 270 266 263 260 257 257 255 250 248 247 245 246 246 244 242 241 242 242 243 243 243
293 294 295 296 300 305 307 306 306 306 306 305 304 304 304 302 300 298 296 294 291 289 287 283 281 277 274 273 271 268 266 264 262 259 256 253 251 249 246 247 247 246 242 239 240 241 241 241 241
289 290 292 298 303 304 306 308 309 308 308 307 307 305 305 303 302 300 298 296 293 291 289 285 282 279 275 273 271 269 268 267 264 261 258 254 252 251 249 250 249 245 242 239 239 239 240 239 239
287 289 292 295 302 305 308 310 310 310 310 311 312 310 309 306 304 302 300 298 296 294 292 289 286 282 278 275 272 269 268 267 264 263 261 259 256 253 249 250 249 246 242 240 239 239 239 238 238
284 288 294 299 303 306 308 311 312 313 313 314 314 313 311 309 308 306 304 302 300 298 295 292 289 285 280 276 273 270 267 266 264 264 264 263 259 256 251 248 248 251 248 243 240 241 240 238 237
282 290 296 302 306 309 311 313 315 315 315 315 315 314 313 313 311 310 309 307 305 302 299 296 292 289 285 280 276 272 269 266 264 264 264 262 259 259 254 252 250 252 252 248 243 241 241 239 238
287 294 302 305 308 311 313 315 317 317 318 318 319 319 319 318 316 316 315 313 311 309 305 301 297 293 290 285 279 275 271 268 265 264 263 261 260 259 257 255 252 251 252 251 248 245 243 241 239
289 296 302 306 308 312 317 319 321 322 321 322 322 324 324 324 323 322 321 320 318 315 311 307 302 298 293 290 285 280 274 269 267 265 264 261 259 257 256 253 253 252 252 253 253 249 246 243 242
291 299 305 307 309 314 321 322 324 325 324 325 326 327 328 328 328 329 327 326 324 322 319 314 310 305 298 293 290 284 279 273 268 265 264 262 260 258 255 254 253 253 253 251 251 250 249 247 246
292 299 303 305 310 322 325 323 326 328 329 329 329 330 331 332 334 335 335 333 331 329 326 323 320 315 307 300 295 290 283 277 271 267 265 264 263 260 257 255 254 252 251 251 250 249 248 250 249
279 286 295 301 310 319 323 324 328 334 334 332 332 334 336 338 340 341 340 339 338 337 335 334 331 326 319 308 301 296 291 284 278 272 268 265 262 261 258 255 254 253 251 250 249 247 248 249 249
271 285 292 295 310 316 320 323 328 337 337 336 337 339 342 344 345 346 347 346 345 345 344 343 340 337 332 323 314 307 301 296 290 282 274 268 264 262 259 255 252 252 251 249 248 247 247 248 248
278 286 289 294 308 315 319 324 330 338 341 342 343 345 347 349 350 352 353 353 354 354 352 350 348 344 341 335 327 318 311 306 300 291 284 276 270 265 260 257 254 252 250 248 246 247 246 245 246
281 283 291 299 309 317 325 336 342 347 347 347 348 350 352 355 357 358 358 359 360 0 359 359 358 356 354 349 343 335 326 317 309 299 291 286 279 272 264 259 256 253 251 248 246 246 245 244 244
270 285 293 300 312 326 340 342 345 350 353 354 355 357 0 3 3 4 5 6 5 6 6 6 6 6 5 0 354 349 342 332 323 313 302 294 286 279 270 263 258 255 253 250 248 247 245 245 244
271 285 291 305 318 334 346 346 340 351 356 358 0 2 4 6 6 7 10 10 10 11 11 10 10 11 11 9 5 359 354 346 337 327 316 304 294 286 278 269 262 258 256 254 252 250 247 246 246
268 270 280 309 342 355 343 337 335 350 356 359 2 5 8 9 10 12 14 15 16 17 16 16 15 14 13 12 10 7 3 357 349 340 330 317 305 295 287 277 269 264 261 258 255 252 250 248 247
250 251 242 355 359 333 327 332 343 352 357 1 5 9 12 13 15 16 16 18 20 20 20 20 19 17 15 13 11 9 6 3 357 350 341 330 319 307 297 287 278 271 265 261 257 254 252 250 249
237 233 221 179 217 287 319 336 350 357 2 7 11 14 16 18 19 20 21 21 21 21 21 20 19 17 16 14 12 10 8 5 1 357 351 341 330 319 309 299 288 280 272 265 260 256 254 252 250
227 221 218 205 189 260 318 340 2 360 8 11 13 16 18 19 20 21 22 22 21 20 19 18 17 17 16 15 13 12 10 8 5 1 357 350 341 332 321 310 298 288 279 272 265 260 257 254 251
222 215 205 202 183 160 300 326 359 6 7 8 11 15 17 19 19 20 20 19 18 18 17 17 16 16 15 15 14 14 12 9 8 6 3 358 351 344 337 327 316 304 290 279 270 264 260 257 254
208 204 200 198 188 175 232 319 350 1 3 5 8 10 13 14 15 16 16 16 16 15 15 15 15 15 15 15 15 15 15 13 11 9 7 5 1 355 348 342 333 322 310 293 279 271 264 260 256
206 202 196 197 190 203 264 348 342 358 360 2 5 6 8 9 10 10 11 11 12 12 12 12 12 12 13 13 14 14 14 14 13 11 9 9 8 4 360 354 347 337 327 311 295 283 274 267 262
Height
5912 5911 5910 5910 5909 5908 5906 5906 5905 5905 5904 5903 5903 5902 5902 5902 5902 5903 5899 5897 5897 5896 5895 5895 5895 5894 5894 5894 5893 5893 5893 5892 5892 5892 5892 5892 5892 5892 5892 5892 5892 5893 5893 5893 5893 5894 5894 5894 5895
5913 5912 5911 5911 5909 5907 5907 5906 5905 5905 5904 5903 5902 5902 5901 5901 5900 5899 5897 5896 5895 5895 5894 5893 5893 5892 5892 5892 5891 5891 5891 5891 5891 5891 5891 5891 5891 5891 5891 5891 5891 5891 5891 5892 5892 5892 5892 5893 5893
5914 5913 5913 5911 5908 5907 5907 5906 5905 5904 5903 5902 5902 5902 5901 5900 5899 5897 5896 5894 5894 5893 5892 5891 5890 5890 5889 5889 5889 5889 5889 5889 5889 5889 5889 5889 5889 5889 5890 5890 5890 5890 5890 5890 5890 5891 5891 5891 5891
5914 5913 5913 5912 5908 5907 5906 5905 5904 5903 5902 5901 5901 5900 5899 5898 5897 5895 5894 5893 5892 5891 5890 5889 5888 5887 5886 5886 5886 5886 5886 5886 5886 5886 5887 5887 5887 5887 5888 5888 5888 5888 5888 5888 5889 5889 5889 5889 5890
5914 5913 5912 5909 5907 5906 5905 5904 5903 5902 5901 5900 5899 5898 5897 5896 5895 5893 5892 5891 5890 5888 5887 5886 5885 5885 5884 5883 5882 5882 5882 5883 5883 5883 5884 5884 5884 5885 5885 5885 5886 5886 5886 5887 5887 5887 5888 5888 5888
5914 5912 5912 5909 5907 5905 5904 5903 5902 5901 5900 5898 5897 5896 5895 5894 5892 5890 5889 5887 5886 5885 5884 5882 5881 5881 5880 5879 5879 5879 5878 5879 5879 5879 5880 5880 5881 5881 5882 5883 5883 5884 5884 5884 5885 5885 5886 5886 5886
5913 5912 5910 5908 5906 5905 5904 5902 5901 5899 5898 5896 5895 5894 5891 5890 5888 5886 5885 5883 5881 5880 5879 5877 5877 5876 5875 5874 5874 5874 5874 5874 5874 5875 5875 5876 5877 5877 5878 5879 5880 5881 5881 5882 5882 5883 5884 5884 5885
5910 5910 5908 5906 5904 5902 5901 5900 5899 5897 5895 5894 5892 5890 5888 5886 5884 5882 5880 5878 5876 5874 5873 5871 5871 5870 5870 5869 5868 5868 5868 5869 5869 5870 5870 5871 5872 5873 5874 5875 5876 5877 5878 5879 5879 5880 5881 5882 5882
5908 5909 5906 5904 5901 5900 5899 5898 5896 5894 5892 5890 5888 5886 5883 5880 5878 5876 5874 5872 5870 5868 5866 5865 5864 5863 5863 5863 5862 5862 5862 5863 5863 5864 5864 5865 5866 5867 5868 5870 5871 5872 5873 5874 5876 5877 5878 5879 5880
5906 5905 5903 5902 5899 5898 5897 5895 5893 5890 5888 5886 5884 5882 5879 5875 5872 5870 5867 5865 5863 5861 5859 5857 5856 5856 5855 5855 5855 5855 5855 5856 5856 5857 5858 5859 5860 5861 5862 5864 5865 5867 5868 5870 5871 5873 5874 5876 5877
5902 5902 5900 5900 5898 5896 5894 5892 5890 5887 5884 5882 5879 5876 5874 5870 5867 5864 5861 5859 5856 5854 5852 5850 5848 5847 5847 5847 5847 5847 5847 5848 5849 5850 5851 5852 5853 5854 5856 5858 5860 5861 5863 5865 5866 5869 5870 5872 5874
5898 5898 5898 5897 5896 5894 5892 5889 5887 5884 5881 5878 5875 5872 5869 5865 5862 5859 5855 5852 5850 5847 5845 5843 5840 5839 5838 5838 5838 5838 5839 5840 5841 5842 5843 5844 5846 5848 5849 5852 5854 5855 5857 5859 5861 5864 5866 5868 5869
5895 5895 5895 5894 5893 5891 5889 5887 5884 5881 5878 5875 5871 5868 5864 5861 5857 5853 5850 5847 5844 5841 5838 5836 5834 5832 5831 5830 5830 5830 5831 5832 5833 5834 5835 5837 5839 5841 5842 5845 5847 5849 5851 5853 5856 5858 5860 5863 5865
5895 5893 5892 5892 5890 5888 5886 5883 5881 5878 5875 5871 5868 5864 5860 5856 5852 5849 5845 5842 5839 5835 5833 5830 5828 5826 5824 5823 5822 5822 5823 5823 5824 5825 5827 5828 5830 5833 5835 5837 5840 5843 5845 5847 5849 5851 5855 5857 5859
5893 5892 5890 5888 5886 5884 5882 5880 5877 5874 5871 5867 5864 5860 5857 5853 5849 5846 5842 5838 5835 5831 5828 5825 5823 5820 5818 5816 5815 5815 5815 5816 5817 5818 5819 5821 5822 5825 5827 5830 5832 5835 5838 5840 5843 5845 5848 5851 5854
5891 5890 5887 5885 5882 5880 5881 5877 5874 5871 5868 5864 5861 5857 5854 5850 5846 5843 5839 5835 5831 5828 5824 5821 5818 5815 5812 5811 5809 5808 5808 5808 5809 5810 5811 5813 5815 5817 5819 5822 5825 5827 5830 5833 5836 5839 5842 5845 5848
5888 5886 5884 5882 5880 5878 5877 5874 5871 5868 5865 5862 5858 5855 5851 5848 5844 5840 5836 5832 5829 5825 5821 5817 5813 5810 5807 5805 5804 5803 5802 5802 5803 5803 5804 5806 5807 5809 5811 5814 5817 5819 5822 5825 5828 5832 5835 5838 5841
5886 5884 5882 5880 5878 5877 5875 5872 5869 5867 5864 5860 5856 5853 5849 5846 5842 5838 5834 5830 5826 5822 5818 5814 5810 5807 5804 5801 5799 5798 5797 5797 5797 5797 5798 5799 5800 5802 5804 5806 5809 5812 5815 5818 5821 5824 5828 5831 5834
5882 5881 5881 5880 5877 5876 5874 5871 5868 5865 5862 5859 5855 5852 5848 5844 5841 5837 5833 5829 5825 5820 5816 5812 5808 5804 5801 5798 5796 5795 5794 5793 5793 5792 5792 5793 5794 5795 5797 5799 5801 5804 5807 5810 5813 5816 5820 5823 5827
5879 5879 5879 5878 5876 5875 5872 5870 5867 5864 5861 5858 5855 5851 5847 5844 5840 5836 5832 5828 5824 5820 5815 5811 5806 5802 5799 5796 5794 5793 5791 5790 5789 5788 5788 5788 5788 5788 5790 5792 5794 5796 5799 5802 5806 5809 5812 5816 5819
5878 5877 5877 5876 5874 5873 5871 5869 5866 5863 5861 5858 5854 5851 5847 5844 5840 5836 5832 5828 5824 5819 5815 5810 5806 5802 5798 5795 5793 5791 5789 5787 5786 5785 5784 5783 5783 5783 5783 5785 5787 5789 5792 5795 5798 5801 5804 5808 5812
5875 5875 5875 5874 5873 5871 5870 5868 5865 5862 5860 5857 5854 5851 5847 5844 5840 5836 5832 5828 5824 5820 5815 5811 5807 5803 5799 5795 5792 5790 5787 5785 5783 5782 5780 5779 5778 5778 5778 5779 5780 5782 5784 5787 5790 5793 5796 5800 5804
5873 5874 5873 5872 5871 5870 5869 5868 5866 5862 5860 5857 5854 5851 5848 5844 5841 5837 5833 5829 5825 5820 5816 5812 5808 5804 5800 5796 5793 5789 5786 5784 5782 5779 5777 5776 5775 5774 5773 5774 5775 5776 5777 5779 5782 5785 5788 5791 5795
5872 5872 5872 5871 5870 5870 5869 5869 5866 5863 5860 5857 5855 5851 5848 5845 5841 5838 5834 5830 5826 5822 5818 5813 5809 5805 5801 5797 5793 5790 5786 5783 5780 5778 5775 5773 5771 5770 5769 5769 5769 5770 5771 5773 5775 5777 5780 5783 5787
5870 5871 5871 5870 5870 5871 5869 5868 5867 5863 5861 5858 5855 5852 5849 5846 5842 5839 5835 5831 5827 5823 5819 5815 5811 5807 5802 5798 5794 5790 5786 5783 5779 5776 5774 5771 5769 5767 5766 5765 5764 5765 5765 5766 5768 5769 5772 5775 5778
5868 5869 5870 5870 5872 5871 5869 5867 5866 5864 5861 5859 5856 5853 5850 5847 5843 5840 5836 5833 5829 5825 5821 5817 5813 5808 5804 5799 5795 5791 5786 5783 5779 5775 5772 5769 5766 5764 5762 5761 5760 5759 5759 5760 5761 5762 5765 5767 5769
5867 5867 5868 5869 5869 5869 5869 5867 5866 5864 5862 5859 5857 5854 5851 5848 5844 5841 5838 5834 5831 5827 5823 5819 5814 5810 5805 5801 5796 5792 5787 5783 5779 5775 5771 5767 5764 5761 5759 5757 5755 5755 5754 5754 5754 5756 5757 5759 5761
5866 5866 5867 5868 5867 5869 5869 5867 5865 5864 5862 5860 5857 5855 5852 5849 5846 5842 5839 5836 5832 5828 5824 5820 5816 5812 5807 5802 5798 5793 5788 5783 5779 5775 5770 5766 5762 5759 5756 5753 5752 5750 5749 5749 5749 5750 5750 5752 5754
5865 5866 5866 5867 5867 5867 5867 5868 5865 5864 5862 5860 5858 5855 5853 5850 5847 5844 5840 5837 5833 5830 5826 5822 5818 5813 5809 5804 5799 5794 5789 5784 5780 5775 5770 5766 5761 5757 5754 5751 5749 5747 5745 5744 5744 5744 5744 5745 5747
5864 5865 5866 5866 5866 5866 5866 5869 5864 5863 5862 5860 5858 5856 5853 5850 5848 5844 5841 5838 5834 5831 5827 5823 5819 5815 5810 5805 5801 5796 5791 5786 5781 5776 5771 5766 5761 5757 5753 5750 5747 5744 5742 5741 5740 5740 5740 5740 5741